Weather History for Cedar Rapids, IA

Change the Weather History Date:

Friday, August 9, 2013

  Actual Average Record
Temperature  
Mean Temperature 70 °F 72 °F  
Max Temperature 81 °F 82 °F 104 °F (1913)
Min Temperature 59 °F 62 °F 43 °F (1927)
Degree Days  
Heating Degree Days 0 0  
Month to date heating degree days 0 0  
Since 1 June heating degree days 41 33  
Since 1 July heating degree days 13 4  
Cooling Degree Days 5 7  
Month to date cooling degree days 48 65  
Year to date cooling degree days 528 532  
Since 1 June cooling degree days 454 483  
Growing Degree Days 20 (Base 50)    
Moisture  
Dew Point 61 °F    
Average Humidity 76    
Maximum Humidity 97    
Minimum Humidity 54    
Precipitation  
Precipitation 0.00 in 0.14 in 5.10 in (1993)
Month to date precipitation 0.06 1.27  
Year to date precipitation 29.35 22.09  
Sea Level Pressure  
Sea Level Pressure 30.02 in    
Wind  
Wind Speed 5 mph (NW)    
Max Wind Speed 15 mph    
Max Gust Speed 18 mph    
Visibility 9 miles    
Events      
T = Trace of Precipitation, MM = Missing Value Source: NWS Daily Summary

Daily Weather History Graph

Daily Weather History Graph

Search for Another Location

Airport:

Trip Planner

Search our weather history database for the weather conditions in past years. The results will help you decide how hot, cold, wet, or windy it might be!

Date:

Astronomy

Aug. 09, 2013 Rise Set
Actual Time 6:08 AM CDT 8:14 PM CDT
Civil Twilight 5:38 AM CDT 8:45 PM CDT
Nautical Twilight 5:00 AM CDT 9:22 PM CDT
Astronomical Twilight 4:19 AM CDT 10:03 PM CDT
Moon 8:59 AM CDT (8/9) 9:20 PM CDT (8/9)
Length of Visible Light 15h 06m
Length of Day
14h 05m
Waxing Crescent, 8% of the Moon is Illuminated
Aug 9
Waxing Crescent
Aug 14
First Quarter
Aug 20
Full
Aug 28
Last Quarter
Sep 5
New

Hourly Weather History & Observations

Time (CDT) Temp. Heat Index Dew Point Humidity Pressure Visibility Wind Dir Wind Speed Gust Speed Precip Events Conditions
12:52 AM 63.0 °F - 61.0 °F 93% 30.00 in 8.0 mi Calm Calm - N/A   Mostly Cloudy
1:52 AM 63.0 °F - 61.0 °F 93% 30.00 in 9.0 mi Calm Calm - N/A   Clear
2:52 AM 61.0 °F - 59.0 °F 93% 29.99 in 7.0 mi Calm Calm - N/A   Clear
3:52 AM 62.1 °F - 60.1 °F 93% 29.98 in 9.0 mi Calm Calm - N/A   Clear
4:52 AM 62.1 °F - 59.0 °F 90% 29.99 in 10.0 mi Calm Calm - N/A   Clear
5:52 AM 62.1 °F - 60.1 °F 93% 30.00 in 10.0 mi Calm Calm - N/A   Clear
6:52 AM 64.0 °F - 61.0 °F 90% 30.01 in 8.0 mi Calm Calm - N/A   Overcast
7:52 AM 64.9 °F - 63.0 °F 93% 30.02 in 6.0 mi Calm Calm - N/A   Overcast
8:52 AM 68.0 °F - 63.0 °F 84% 30.02 in 10.0 mi West 5.8 mph - N/A   Overcast
9:52 AM 73.9 °F - 64.0 °F 71% 30.01 in 10.0 mi West 6.9 mph - N/A   Partly Cloudy
10:52 AM 78.1 °F - 64.0 °F 62% 30.02 in 10.0 mi NW 10.4 mph - N/A   Clear
11:52 AM 80.1 °F 81.7 °F 64.0 °F 58% 30.01 in 10.0 mi NW 11.5 mph - N/A   Partly Cloudy
12:52 PM 79.0 °F - 64.9 °F 62% 30.02 in 10.0 mi NW 12.7 mph - N/A   Mostly Cloudy
1:52 PM 80.1 °F 82.1 °F 66.0 °F 62% 30.02 in 10.0 mi NNW 11.5 mph 18.4 mph N/A   Scattered Clouds
2:52 PM 79.0 °F - 63.0 °F 58% 30.02 in 10.0 mi NNW 10.4 mph - N/A   Partly Cloudy
3:52 PM 79.0 °F - 61.0 °F 54% 30.02 in 10.0 mi NNW 8.1 mph - N/A   Clear
4:52 PM 77.0 °F - 59.0 °F 54% 30.03 in 10.0 mi NNW 9.2 mph - N/A   Clear
5:52 PM 75.0 °F - 60.1 °F 60% 30.02 in 10.0 mi NNW 5.8 mph - N/A   Clear
6:52 PM 73.9 °F - 57.9 °F 57% 30.03 in 10.0 mi NNW 6.9 mph - N/A   Clear
7:52 PM 70.0 °F - 57.0 °F 63% 30.04 in 10.0 mi NNW 5.8 mph - N/A   Clear
8:52 PM 66.0 °F - 59.0 °F 78% 30.06 in 10.0 mi West 5.8 mph - N/A   Clear
9:52 PM 64.9 °F - 59.0 °F 81% 30.07 in 10.0 mi WNW 4.6 mph - N/A   Clear
10:52 PM 64.9 °F - 59.0 °F 81% 30.08 in 9.0 mi NW 3.5 mph - N/A   Clear
11:52 PM 61.0 °F - 57.9 °F 90% 30.10 in 9.0 mi WNW 5.8 mph - N/A   Clear